Skip Page Navigation
NASA JPL Caltech
NASA Logo - Jet Propulsion Laboratory + View the NASA Portal
+ Center for Near-Earth Object Studies
JPL Home Earth Solar System Stars & Galaxies Technology
JPL Solar System Dynamics
BODIES ORBITS EPHEMERIDES TOOLS PHYSICAL DATA DISCOVERY FAQ SITE MAP
IMPORTANT: The SSD Announcement email list is now available. Major changes are coming in the near future, including possible hostname and/or URL changes. To be notified of such changes, subscribe to this email list.

Please visit this page for more details.


JPL Small-Body Database Browser
Search: [ help ]  
359774 (2011 UC135)
Classification: Main-belt Asteroid          SPK-ID: 2359774
Ephemeris | Orbit Diagram | Orbital Elements | Mission Design | Physical Parameters | Discovery Circumstances | Close-Approach Data ]

[ show orbit diagram ]
Orbital Elements at Epoch 2459000.5 (2020-May-31.0) TDB
Reference: JPL 14 (heliocentric ecliptic J2000)
 Element Value Uncertainty (1-sigma)   Units 
e .08620231820376317 6.9116e-08  
a 2.610465362631182 3.0337e-08 au
q 2.385437196781746 1.865e-07 au
i 10.6260937609361 6.6043e-06 deg
node 248.7077981465942 3.7118e-05 deg
peri 314.7213861987838 5.5527e-05 deg
M 227.2112383170179 4.7185e-05 deg
tp 2459568.743072158520
(2021-Dec-20.24307216)
0.00020737 TDB
period 1540.548336955268
4.22
2.6854e-05
7.352e-08
d
yr
n .2336830278960946 4.0735e-09 deg/d
Q 2.835493528480617 3.2952e-08 au
  Orbit Determination Parameters
   # obs. used (total)      183  
   data-arc span      5366 days (14.69 yr)  
   first obs. used      2005-05-11  
   last obs. used      2020-01-19  
   planetary ephem.      DE431  
   SB-pert. ephem.      SB431-N16  
   condition code      0  
   norm. resid. RMS      .55341  
   source      ORB  
   producer      Otto Matic  
   solution date      2020-Feb-26 00:46:04  

Additional Information
 Earth MOID = 1.39194 au 
 Jupiter MOID = 2.19112 au 
 T_jup = 3.380 
[ show covariance matrix ]

Ephemeris | Orbit Diagram | Orbital Elements | Mission Design | Physical Parameters | Discovery Circumstances | Close-Approach Data ]

Physical Parameter Table
Parameter Symbol Value Units Sigma Reference Notes
absolute magnitude H 16.2   n/a MPO455596  

359774 (2011 UC135)          Discovered 2005-May-11 by NEAT at Palomar
Reference: 20130327/Numbers.arcLast Updated: 2013-03-29

[ show close-approach data ]
Alternate Designations
 2011 UC135 = 2005 JJ166 = 2010 KB16 
Ephemeris | Orbit Diagram | Orbital Elements | Mission Design | Physical Parameters | Discovery Circumstances | Close-Approach Data ]
ABOUT SSD CREDITS/AWARDS PRIVACY/COPYRIGHT GLOSSARY LINKS
FirstGov 2020-Jun-05 22:47 UT
(server date/time)  
NASA Home Page
Site Manager:   Ryan S. Park
Webmaster  Alan B. Chamberlin